星链-4061 (STARLINK-4061 )

导读 | 星芒AI

STARLINK-4061 是由 SpaceX 开发的星链(Starlink)卫星网络中的一颗低轨通信卫星,属于第 18 批组网发射的星链卫星之一。该卫星旨在为全球用户提供高速互联网服务,尤其关注偏远和网络覆盖不足的地区。它运行在约 550 公里的轨道高度,采用先进的通信技术,支持高带宽和低延迟传输。星链项目计划部署数万颗卫星,构建一个覆盖全球的宽带网络系统,推动全球互联网接入的普及。

基本信息
目录编号:
53247
目录名称:
STARLINK-4061
国际标识:
2022-086F
轨道中心:
EARTH
卫星名称:
星链-4061
卫星全名:
星链-4061 (STARLINK-4061 )
卫星状态:
在轨 (已飞行1246 天)
发射日期:
2022-07-24 UTC
国别 :
美国 (US)
星等 :
--
轨道信息
数据来源 国际轨道数据
星历时间: 2025-12-20T07:10:06+0800
1天前
查看轨道信息
半长轴: 6917.893km
偏心率: 0.0001385
轨道倾角: 53.216°
近地点辐角 89.444°
升交点赤经 197.199°
平近点角 270.671°
近地点: 538.797km
远地点: 540.715km
周期: 95.438分钟
每日圈数: 15.088361
详细信息
固有亮度:
5
最大亮度:
2.5
卫星平台:
Starlink v1.5
覆盖范围:
全球
运营商:
太空探索技术公司
运营商所在国:
美国
制造商(研发单位):
太空探索技术公司
制造商所在国:
美国
使用方式:
暂无
卫星简介
星链(Starlink)计划是由太空探索技术公司(SpaceX)提出的一个巨型低轨卫星互联网星座项目,计划在2019年至2024年间在太空搭建由约1.2万颗卫星组成的“星链”网络,其中1584颗将部署在地球上空550千米处的近地轨道,并从2020年开始工作。该卫星仍在工作。
2D轨道图
3D轨道图
轨道高度分析图
轨道倾角分析图
轨道综合分析图
查看轨道综合分析图